Regional Weather Roundup
Issued by NWS

Home | Current Version | Previous Version | Text Only | Print | Product List | Glossary On
Versions: 1 2 3 4 5 6 7 8 9 10 11 12 13 14 15 16 17 18 19 20 21 22 23 24 25 26 27 28 29 30 31 32 33 34 35 36 37 38 39 40 41 42 43 44 45 46 47 48 49 50
113
ASUS46 KLOX 111113
RWRCA

SOUTHERN CALIFORNIA WEATHER ROUNDUP
NATIONAL WEATHER SERVICE OXNARD CALIFORNIA
300 AM PST THU FEB 11 2016

NOTE: "FAIR" INDICATES FEW OR NO CLOUDS BELOW 12,000 FEET WITH NO
SIGNIFICANT WEATHER AND/OR OBSTRUCTIONS TO VISIBILITY.

  -  STATIONS PRECEEDED BY AN ASTERISK (*) ARE NOT NWS OR FAA
     STATIONS AND ARE NOT SUBJECT TO NWS AND FAA QUALITY CONTROL.

CAZ041-042-087-111200-
LA AND ORANGE COUNTY COASTAL AREAS


CITY           SKY/WX    TMP DP  RH WIND       PRES   REMARKS
L.A. DOWNTOWN  CLEAR     63  34  33 N3        30.07F
L.A. AIRPORT   PTCLDY    62  35  36 NE3       30.08S
LONG BEACH     CLEAR     55  42  61 CALM      30.07F

CITY           SKY/WX    TMP DP  RH WIND       PRES   REMARKS
FULLERTON      CLEAR     54  40  59 CALM      30.07F
HAWTHORNE      CLEAR     57  40  52 CALM      30.08F
*LOS ALAMITOS  FAIR      51  43  74 CALM      30.07F
SANTA ANA      CLEAR     54  39  57 CALM      30.08S
STA MONICA APT CLEAR     62  34  35 NE5       30.08S
*UCLA            N/A     70  25  18 N8G16     30.06S

$$

CAZ547-548-048-111200-
LA COUNTY VALLEYS AND INLAND EMPIRE


CITY           SKY/WX    TMP DP  RH WIND       PRES   REMARKS
BURBANK        CLEAR     57  32  38 CALM      30.09F
VAN NUYS       CLEAR     53  35  50 CALM      30.10F

CITY           SKY/WX    TMP DP  RH WIND       PRES   REMARKS
CORONA AIRPORT SUNNY     43  37  79 CALM      30.11F
*CHATSWORTH      N/A     54  35  48 CALM      30.11S
CHINO          CLEAR     51  41  68 CALM      30.12F
*CLAREMONT       N/A     55  32  41 CALM        N/A
MARCH AFB      CLEAR     42  28  59 NW3       30.13F
ONTARIO        CLEAR     55  36  48 CALM      30.11F
*PASADENA        N/A     61  34  36 CALM        N/A
RIVERSIDE      CLEAR     57  30  35 NE6       30.12S
SAN BERNARDINO NOT AVBL
*SAN GABRIEL     N/A     56  38  51 W3        30.15F
*SAUGUS          N/A     59  28  31 CALM        N/A
*WHITEMAN AP   NOT AVBL
*WOODLAND HILL   N/A     50  32  50 S1          N/A

$$

CAZ054-055-111200-
LA AND SAN BERNARDINO COUNTY MOUNTAINS


CITY           SKY/WX    TMP DP  RH WIND       PRES   REMARKS
*BIG BEAR AIRP SUNNY     23  18  80 CALM      30.39S
*CHILAO          N/A     60  12  15 CALM        N/A
SANDBERG       CLEAR    N/A N/A N/A E10       30.29S
*WARM SPRINGS    N/A     60  44  55 CALM        N/A

$$

CAZ028-029-059-060-099-111200-
ANTELOPE VALLEY AND SURROUNDING AREAS


CITY           SKY/WX    TMP DP  RH WIND       PRES   REMARKS
LANCASTER      CLEAR     37  27  67 W3        30.25S
PALMDALE       CLEAR     41  27  57 CALM      30.24F
*POPPY PARK      N/A     43  25  48 W5          N/A

CITY           SKY/WX    TMP DP  RH WIND       PRES   REMARKS
29 PALMS       CLEAR     48  20  32 NW8       30.28S
BARSTOW/DAGGET CLEAR     46  23  40 W9        30.22S
BISHOP         PTCLDY    33  23  66 N7        30.31S WCI  27
CHINA LAKE     CLEAR     38  27  64 CALM      30.23S
EDWARDS AFB    CLEAR     35  23  63 S1        30.23S
MOJAVE         CLEAR     45  28  53 NW8       30.24F
NEEDLES        CLEAR     53  26  35 SW7       30.16F
VICTORVILLE    CLEAR     41  25  52 CALM      30.24F

$$

CAZ039-040-111200-
VENTURA AND SANTA BARBARA COUNTY COAST


CITY           SKY/WX    TMP DP  RH WIND       PRES   REMARKS
CAMARILLO      CLEAR     53  35  50 CALM      30.07F
OXNARD AIRPORT CLEAR     65  30  27 NE9       30.07F
*POINT MUGU    CLEAR     49  40  71 N3        30.08F
SBA APT/GOLETA CLEAR     45  42  89 CALM      30.07F
*SANTA BARBARA   N/A     52  38  59 CALM      30.14F
*VENTURA         N/A     67  29  24 NE7       30.06F

$$

CAZ044-045-111200-
VENTURA COUNTY VALLEYS


CITY           SKY/WX    TMP DP  RH WIND       PRES   REMARKS
*SIMI VALLEY     N/A     71  28  20 N10       30.02S
*WESTLAKE VILL   N/A     42  34  73 CALM      30.11S
*OJAI            N/A     42  37  82 CALM      30.05F
*FILLMORE        N/A     50  36  57 CALM      29.99F

$$

CAZ053-111200-
VENTURA COUNTY MOUNTAINS


CITY           SKY/WX    TMP DP  RH WIND       PRES   REMARKS
*LOCKWOOD VLY    N/A     25  18  74 W1          N/A
*ROSE VALLEY     N/A     27  27 100 MISG        N/A

$$

CAZ034-035-036-111200-
CENTRAL COAST AND SANTA YNEZ VALLEY


CITY           SKY/WX    TMP DP  RH WIND       PRES   REMARKS
SAN LUIS OBISP CLEAR     49  41  74 CALM      30.10S
SANTA MARIA    CLEAR     49  42  77 E5        30.10S

CITY           SKY/WX    TMP DP  RH WIND       PRES   REMARKS
*CAL POLY SLO    N/A     50  41  71 CALM        N/A
*PISMO BEACH     N/A     53  41  65 NE3       30.10F
*SANTA YNEZ    FAIR      46  39  76 CALM      30.11F

$$

CAZ037-038-051-111200-
SAN LUIS OBISPO COUNTY INTERIOR AND CUYAMA VALLEY


CITY           SKY/WX    TMP DP  RH WIND       PRES   REMARKS
*CUYAMA          N/A     45  32  60 E1        30.14F
PASO ROBLES    CLEAR     42  40  92 CALM      30.16F

$$

CAZ032-033-061-111200-
SOUTHERN DESERTS


CITY           SKY/WX    TMP DP  RH WIND       PRES   REMARKS
BLYTHE         CLEAR     56  24  29 SW6       30.13S
IMPERIAL       CLEAR     52  28  39 W5        30.09F
PALM SPRINGS   CLEAR     58  29  33 N9        30.13F
THERMAL        CLEAR     43  31  62 CALM      30.09S

$$

ELSEWHERE ACROSS THE WESTERN UNITED STATES AND MEXICO


CITY           SKY/WX    TMP DP  RH WIND       PRES   REMARKS
DENVER, CO     CLOUDY    30  20  66 S14       30.15F WCI  19
GRAND CANYON,  MOCLDY    21  16  81 NE5       30.37S WCI  15
HONOLULU, HI   PTCLDY    70  61  73 NW6       30.05F
KAHULUI, MAUI  CLEAR     66  61  82 CALM      30.06S
LAKE TAHOE, CA PTCLDY    26  22  84 S3        30.36F
LAS VEGAS, NV  PTCLDY    49  26  41 SW6       30.20S
MAMMOTH LAKES, FAIR      28  19  69 CALM      30.41S
MEXICO CITY, M PTCLDY    39  34  81 E7        30.40S WCI  34
PHOENIX, AZ    PTCLDY    59  34  39 CALM      30.11S
PORTLAND, OR   CLOUDY    49  45  86 CALM      30.18F
RENO, NV       PTCLDY    34  29  82 CALM      30.33S
SALT LAKE CITY CLOUDY    29  27  92 CALM      30.45S FOG
SAN DIEGO, CA  CLEAR     59  37  44 CALM      30.08F
SAN FRANCISCO, PTCLDY    53  49  86 SE3       30.14S
SAN JOSE, CA   CLEAR     52  46  80 E3        30.14F
SEATTLE, WA    CLOUDY    48  45  89 NE7       30.23F
TIJUANA, MEX   CLEAR     63  19  19 CALM      30.10F

$$

STATION/POSITION TIME  TEMP    WIND        PRES    VSBY  WAVE
                       AIR SEA DIR/SP/G                  HT/PER
                 (UTC) (F)     (DEG/KT/KT) (MB)    (MI)  (FT/S)
POINT ARGUELLO B NOT AVBL
WEST SANTA BARBA 1050   57 57  310/  6/  6 1018.0F         4/12
POINT CONCEPTION NOT AVBL
EAST SANTA BARBA 1100   58 59  260/  2/  4 1018.9F
SANTA MONICA BAY 1050   60 60  150/  4/  4 1018.5F         3/11



USA.gov is the U.S. government's official web portal to all federal, state and local government web resources and services.